�N����,����,�~����,�C��,���x,�C��,����,���ϕ���,�ő�u�ԕ���,�ő厞����,���˗�,�I�_���x,�n�����x,�ő啗���N��,DTYPE
"23/01/18","00:10",0.0,3.3,86.0,1015.2,339.3,3.2,4.8,351.4,0.00,1.2,7.9,"00:08:32",1
"23/01/18","00:20",0.0,3.0,85.8,1015.2,338.8,3.0,4.0,344.4,0.00,0.9,7.6,"00:13:34",1
"23/01/18","00:30",0.0,3.1,85.9,1015.2,306.8,3.0,4.5,310.8,0.00,1.0,7.8,"00:26:26",1
"23/01/18","00:40",0.0,2.9,85.9,1014.9,334.9,2.7,3.7,329.3,0.00,0.8,7.8,"00:31:00",1
"23/01/18","00:50",0.0,2.9,85.9,1014.7,324.8,3.6,4.7,310.0,0.00,0.8,7.5,"00:48:30",1
"23/01/18","01:00",0.0,2.4,86.0,1014.7,338.3,2.7,3.6,329.0,0.00,0.3,7.7,"00:51:34",1
"23/01/18","01:10",0.0,2.4,86.7,1014.9,339.1,2.7,2.9,337.4,0.00,0.5,7.4,"01:07:02",1
"23/01/18","01:20",0.0,2.1,86.9,1014.5,330.7,1.6,1.8,308.6,0.00,0.2,7.7,"01:15:58",1
"23/01/18","01:30",0.0,1.6,87.4,1014.0,299.4,1.3,1.7,270.0,0.00,-0.2,7.6,"01:26:40",1
"23/01/18","01:40",0.0,1.8,88.1,1014.2,316.1,1.8,2.9,336.9,0.00,0.1,7.6,"01:39:48",1
"23/01/18","01:50",0.0,2.0,88.5,1014.5,326.4,2.7,3.5,330.2,0.00,0.3,7.6,"01:47:50",1
"23/01/18","02:00",0.0,1.9,88.8,1014.2,332.1,2.3,2.9,334.4,0.00,0.3,7.4,"01:53:42",1
"23/01/18","02:10",0.0,2.0,89.1,1013.8,334.1,2.5,3.3,334.7,0.00,0.4,7.7,"02:06:18",1
"23/01/18","02:20",0.0,1.9,89.2,1014.0,319.1,2.6,3.3,315.1,0.00,0.4,7.5,"02:13:42",1
"23/01/18","02:30",0.0,1.9,89.5,1014.0,330.2,2.1,2.8,344.2,0.00,0.4,7.6,"02:22:32",1
"23/01/18","02:40",0.0,2.2,89.7,1014.2,332.7,2.6,4.1,341.0,0.00,0.7,7.3,"02:39:56",1
"23/01/18","02:50",0.0,2.6,89.4,1014.2,327.0,3.0,4.7,321.0,0.00,1.1,7.3,"02:44:50",1
"23/01/18","03:00",0.0,2.8,89.1,1014.5,308.0,2.5,3.9,337.5,0.00,1.2,7.4,"02:58:32",1
"23/01/18","03:10",0.0,2.9,88.7,1014.5,317.5,2.5,3.9,309.9,0.00,1.3,7.4,"03:00:42",1
"23/01/18","03:20",0.0,2.6,88.5,1014.2,346.2,0.5,1.0,53.7,0.00,0.9,7.3,"03:11:30",1
"23/01/18","03:30",0.0,2.4,88.6,1014.2,313.1,1.1,1.1,313.1,0.00,0.8,7.2,"03:28:48",1
"23/01/18","03:40",0.0,2.4,88.8,1014.0,335.2,1.0,1.3,316.9,0.00,0.8,7.2,"03:36:36",1
"23/01/18","03:50",0.0,2.5,89.0,1013.8,326.3,1.0,1.2,340.1,0.00,0.9,7.2,"03:45:30",1
"23/01/18","04:00",0.0,2.5,89.1,1013.8,325.8,1.5,2.4,337.5,0.00,0.9,7.3,"03:59:36",1
"23/01/18","04:10",0.0,2.8,89.1,1014.2,322.8,2.2,3.2,322.5,0.00,1.2,7.3,"04:05:10",1
"23/01/18","04:20",0.0,2.8,89.0,1014.5,329.6,1.7,2.6,339.2,0.00,1.2,7.2,"04:15:28",1
"23/01/18","04:30",0.0,2.8,88.9,1014.2,328.2,2.0,2.9,334.3,0.00,1.2,7.1,"04:20:02",1
"23/01/18","04:40",0.0,2.9,88.8,1014.2,322.2,2.7,3.9,336.1,0.00,1.3,6.9,"04:39:32",1
"23/01/18","04:50",0.0,2.8,88.8,1014.0,329.4,2.7,4.4,334.6,0.00,1.2,7.1,"04:46:42",1
"23/01/18","05:00",0.0,2.9,89.0,1014.0,316.5,3.4,4.9,316.2,0.00,1.3,7.2,"04:59:20",1
"23/01/18","05:10",0.0,2.9,89.1,1014.0,310.5,3.1,4.2,311.2,0.00,1.3,7.1,"05:09:34",1
"23/01/18","05:20",0.0,2.8,89.0,1013.8,324.7,3.1,4.1,311.1,0.00,1.2,7.0,"05:12:18",1
"23/01/18","05:30",0.0,2.5,89.1,1013.8,323.6,2.7,3.9,346.7,0.00,0.9,7.1,"05:20:40",1
"23/01/18","05:40",0.0,2.3,89.3,1014.0,297.5,3.0,3.5,301.6,0.00,0.8,7.3,"05:35:30",1
"23/01/18","05:50",0.0,2.3,89.6,1014.5,315.5,3.1,4.3,316.4,0.00,0.8,7.2,"05:41:38",1
"23/01/18","06:00",0.0,2.2,90.0,1014.0,333.3,2.2,2.7,341.1,0.00,0.8,7.1,"05:57:28",1
"23/01/18","06:10",0.0,2.3,90.1,1014.2,324.5,2.5,4.3,316.7,0.00,0.9,7.0,"06:03:26",1
"23/01/18","06:20",0.0,2.2,90.3,1014.5,329.2,2.0,2.2,333.0,0.00,0.8,7.0,"06:11:30",1
"23/01/18","06:30",0.0,2.2,90.5,1014.2,305.0,2.5,3.1,308.7,0.00,0.8,6.9,"06:27:44",1
"23/01/18","06:40",0.0,2.2,90.7,1014.5,309.7,2.5,3.5,312.9,0.00,0.9,7.1,"06:34:24",1
"23/01/18","06:50",0.0,2.3,90.8,1014.5,303.1,2.2,3.2,272.8,0.00,1.0,7.0,"06:45:20",1
"23/01/18","07:00",0.0,2.5,90.8,1014.2,308.6,2.1,2.7,305.0,0.00,1.2,7.1,"06:56:24",1
"23/01/18","07:10",0.0,2.6,90.7,1014.5,327.8,2.5,3.5,340.6,0.00,1.3,7.1,"07:06:44",1
"23/01/18","07:20",0.0,2.8,90.5,1014.7,311.6,2.6,4.4,322.5,0.00,1.4,7.1,"07:19:52",1
"23/01/18","07:30",0.0,2.8,90.2,1014.7,326.5,3.5,5.6,315.2,0.00,1.4,7.0,"07:21:06",1
"23/01/18","07:40",0.0,2.9,89.9,1014.9,334.5,2.8,4.5,338.7,0.00,1.4,6.9,"07:35:24",1
"23/01/18","07:50",0.0,2.9,89.5,1015.2,318.7,3.4,5.8,319.2,0.00,1.4,6.7,"07:49:46",1
"23/01/18","08:00",0.0,3.0,89.2,1014.9,325.6,4.0,5.4,341.4,0.00,1.4,6.7,"07:54:38",1
"23/01/18","08:10",0.0,3.1,88.9,1014.9,323.9,4.4,6.6,323.8,0.00,1.5,6.8,"08:08:26",1
"23/01/18","08:20",0.0,3.1,88.6,1015.2,313.1,3.9,5.4,321.4,0.00,1.4,7.0,"08:15:18",1
"23/01/18","08:30",0.0,3.1,88.4,1015.6,325.3,4.6,6.4,314.5,0.00,1.4,6.9,"08:28:00",1
"23/01/18","08:40",0.0,3.1,88.4,1015.4,319.5,4.0,6.2,321.5,0.01,1.4,7.0,"08:32:30",1
"23/01/18","08:50",0.0,3.4,88.4,1014.9,330.5,3.2,4.8,331.8,0.02,1.7,6.9,"08:43:52",1
"23/01/18","09:00",0.0,3.8,88.4,1015.2,347.8,2.2,4.5,342.7,0.04,2.1,6.8,"08:53:00",1
"23/01/18","09:10",0.0,4.2,88.3,1015.2,7.6,1.2,2.5,53.3,0.07,2.5,7.0,"09:00:16",1
"23/01/18","09:20",0.0,4.8,87.7,1015.4,342.1,1.1,2.4,342.9,0.10,3.0,6.9,"09:13:44",1
"23/01/18","09:30",0.0,5.5,86.9,1015.6,355.6,0.6,1.7,328.0,0.14,3.5,6.7,"09:29:40",1
"23/01/18","09:40",0.0,6.2,85.3,1015.6,290.0,1.0,2.0,317.6,0.11,4.0,6.8,"09:31:46",1
"23/01/18","09:50",0.0,6.8,84.0,1015.6,248.6,1.1,2.2,263.7,0.17,4.3,6.8,"09:48:34",1
"23/01/18","10:00",0.0,7.1,82.2,1014.9,245.4,1.6,2.4,249.8,0.19,4.3,6.9,"09:57:14",1
"23/01/18","10:10",0.0,7.7,80.5,1015.6,217.1,1.2,2.5,232.9,0.25,4.6,7.0,"10:03:40",1
"23/01/18","10:20",0.0,7.9,78.6,1015.2,204.1,1.6,3.5,214.8,0.21,4.5,7.1,"10:13:14",1
"23/01/18","10:30",0.0,7.8,77.6,1015.9,234.1,2.1,3.9,248.9,0.16,4.2,7.0,"10:28:26",1
"23/01/18","10:40",0.0,8.4,77.2,1015.6,314.4,2.3,5.0,330.1,0.21,4.7,7.1,"10:35:36",1
"23/01/18","10:50",0.0,8.8,75.9,1015.9,335.2,3.2,5.4,345.0,0.30,4.8,7.0,"10:47:44",1
"23/01/18","11:00",0.0,8.7,74.9,1015.6,333.1,3.4,5.9,342.5,0.17,4.5,7.3,"10:54:28",1
"23/01/18","11:10",0.0,8.5,74.6,1015.4,338.3,3.1,5.6,351.3,0.11,4.3,7.2,"11:02:20",1
"23/01/18","11:20",0.0,8.4,74.7,1014.9,337.8,2.8,6.8,343.9,0.15,4.2,7.1,"11:16:02",1
"23/01/18","11:30",0.0,8.6,74.9,1014.9,324.9,3.1,6.0,313.1,0.15,4.4,7.1,"11:22:24",1
"23/01/18","11:40",0.0,8.7,74.1,1014.9,308.7,2.7,6.0,316.2,0.19,4.4,7.3,"11:34:36",1
"23/01/18","11:50",0.0,8.7,73.8,1014.5,315.3,2.5,6.0,273.8,0.15,4.3,7.2,"11:48:58",1
"23/01/18","12:00",0.0,8.8,74.0,1014.2,339.3,3.4,4.9,0.1,0.22,4.5,7.2,"11:54:50",1
"23/01/18","12:10",0.0,9.7,72.3,1013.8,339.3,2.6,5.0,13.9,0.44,5.0,7.2,"12:01:28",1
"23/01/18","12:20",0.0,9.9,70.3,1013.8,305.1,3.5,5.6,333.1,0.30,4.8,7.3,"12:17:10",1
"23/01/18","12:30",0.0,9.9,70.4,1014.0,288.8,2.3,4.5,314.8,0.26,4.8,7.6,"12:24:46",1
"23/01/18","12:40",0.0,9.8,70.0,1013.8,290.7,2.0,3.9,301.6,0.18,4.6,7.5,"12:39:08",1
"23/01/18","12:50",0.0,9.6,70.1,1013.5,299.8,2.7,4.5,323.4,0.12,4.5,7.6,"12:42:14",1
"23/01/18","13:00",0.0,9.2,70.5,1013.3,303.3,3.0,5.9,313.1,0.12,4.2,7.6,"12:58:24",1
"23/01/18","13:10",0.0,9.8,70.5,1013.3,311.9,3.1,6.6,329.4,0.28,4.7,7.7,"13:06:18",1
"23/01/18","13:20",0.0,10.8,68.1,1012.8,286.5,2.8,5.2,329.6,0.50,5.2,7.8,"13:11:44",1
"23/01/18","13:30",0.0,10.6,66.6,1012.6,279.3,3.1,5.4,248.0,0.46,4.7,8.0,"13:24:24",1
"23/01/18","13:40",0.0,10.7,65.6,1012.8,291.1,2.2,4.2,246.8,0.43,4.6,7.8,"13:38:06",1
"23/01/18","13:50",0.0,11.4,63.1,1012.8,313.7,3.0,5.4,346.7,0.48,4.7,8.0,"13:46:06",1
"23/01/18","14:00",0.0,11.0,63.1,1012.8,311.8,3.9,5.9,341.1,0.46,4.3,7.9,"13:51:48",1
"23/01/18","14:10",0.0,11.6,62.5,1012.6,323.0,2.5,6.3,344.7,0.44,4.7,8.2,"14:00:50",1
"23/01/18","14:20",0.0,11.0,61.0,1013.3,320.3,3.5,6.8,319.4,0.34,3.8,8.2,"14:19:50",1
"23/01/18","14:30",0.0,10.6,60.9,1012.8,325.2,4.2,7.0,336.4,0.30,3.4,8.2,"14:29:26",1
"23/01/18","14:40",0.0,10.6,60.7,1012.8,327.8,3.6,5.8,331.0,0.28,3.4,8.3,"14:30:14",1
"23/01/18","14:50",0.0,10.3,61.2,1012.6,316.1,4.2,8.2,351.4,0.23,3.2,8.4,"14:41:10",1
"23/01/18","15:00",0.0,10.3,61.3,1012.6,324.7,2.8,4.4,337.8,0.16,3.2,8.4,"14:55:34",1
"23/01/18","15:10",0.0,9.3,64.9,1012.6,344.0,4.6,8.9,342.1,0.08,3.1,8.6,"15:03:44",1
"23/01/18","15:20",0.0,8.9,67.4,1012.8,345.8,4.6,8.6,330.4,0.06,3.2,8.6,"15:14:12",1
"23/01/18","15:30",0.0,8.7,69.9,1012.8,333.8,4.5,5.2,329.0,0.09,3.6,8.3,"15:25:30",1
"23/01/18","15:40",0.0,9.0,69.2,1012.8,340.3,3.2,6.0,336.7,0.13,3.7,8.4,"15:36:22",1
"23/01/18","15:50",0.0,9.1,66.9,1012.6,341.1,3.7,7.1,327.0,0.12,3.3,8.6,"15:42:00",1
"23/01/18","16:00",0.0,9.8,65.5,1012.6,344.3,3.0,6.2,331.5,0.19,3.7,8.7,"15:58:16",1
"23/01/18","16:10",0.0,9.8,63.6,1012.6,336.4,4.1,5.9,329.5,0.14,3.3,8.6,"16:08:20",1
"23/01/18","16:20",0.0,9.2,64.1,1013.0,329.6,4.6,8.7,330.3,0.08,2.8,8.7,"16:10:50",1
"23/01/18","16:30",0.0,9.0,64.4,1013.0,331.0,4.1,7.3,348.5,0.07,2.7,8.6,"16:20:22",1
"23/01/18","16:40",0.0,9.0,63.8,1013.3,333.6,3.4,5.0,337.7,0.06,2.6,8.5,"16:30:18",1
"23/01/18","16:50",0.0,8.6,64.6,1013.5,347.8,4.5,8.1,339.1,0.04,2.4,8.6,"16:48:42",1
"23/01/18","17:00",0.0,8.7,65.2,1013.5,336.7,3.2,5.9,350.4,0.03,2.6,8.6,"16:55:28",1
"23/01/18","17:10",0.0,8.2,66.1,1013.3,327.8,4.9,8.0,341.4,0.01,2.3,8.6,"17:05:40",1
"23/01/18","17:20",0.0,7.9,67.3,1013.5,316.4,4.0,6.7,347.5,0.00,2.3,8.6,"17:13:36",1
"23/01/18","17:30",0.0,7.8,68.2,1013.3,309.0,3.5,6.5,303.4,0.00,2.4,8.6,"17:28:00",1
"23/01/18","17:40",0.0,7.5,69.2,1013.5,302.3,3.1,5.4,327.6,0.00,2.3,8.6,"17:30:08",1
"23/01/18","17:50",0.0,7.4,69.9,1013.8,302.7,3.4,4.9,336.0,0.00,2.3,8.6,"17:41:36",1
"23/01/18","18:00",0.0,7.2,70.6,1013.8,311.1,3.7,5.6,329.7,0.00,2.3,8.6,"17:51:04",1
"23/01/18","18:10",0.0,7.1,71.0,1013.8,310.9,3.7,5.5,300.8,0.00,2.2,8.7,"18:06:24",1
"23/01/18","18:20",0.0,6.8,71.6,1013.5,298.0,3.0,4.5,308.3,0.00,2.1,8.4,"18:15:28",1
"23/01/18","18:30",0.0,6.6,72.1,1013.8,299.5,2.6,4.1,316.5,0.00,2.0,8.5,"18:20:32",1
"23/01/18","18:40",0.0,6.4,73.0,1014.0,298.4,2.5,4.0,315.7,0.00,2.0,8.3,"18:37:12",1
"23/01/18","18:50",0.0,6.2,74.0,1014.0,304.2,2.7,3.9,319.7,0.00,2.0,8.5,"18:49:20",1
"23/01/18","19:00",0.0,5.8,75.0,1014.0,310.6,2.7,4.1,324.0,0.00,1.8,8.4,"18:58:40",1
"23/01/18","19:10",0.0,5.9,75.5,1014.0,316.9,3.2,5.2,335.5,0.00,1.9,8.2,"19:08:16",1
"23/01/18","19:20",0.0,5.9,75.8,1013.8,323.0,2.8,4.3,336.6,0.00,2.0,8.3,"19:12:16",1
"23/01/18","19:30",0.0,5.5,76.4,1014.5,333.4,3.1,5.0,341.6,0.00,1.7,8.4,"19:21:20",1
"23/01/18","19:40",0.0,5.1,77.6,1014.5,332.3,2.8,4.2,334.3,0.00,1.6,8.3,"19:31:36",1
"23/01/18","19:50",0.0,4.7,78.8,1014.5,328.8,2.5,3.7,334.9,0.00,1.4,8.4,"19:42:24",1
"23/01/18","20:00",0.0,4.4,80.0,1014.5,322.1,2.3,3.6,340.8,0.00,1.3,8.3,"19:51:36",1
"23/01/18","20:10",0.0,4.7,81.0,1014.7,307.9,2.2,3.4,338.9,0.00,1.8,8.4,"20:06:10",1
"23/01/18","20:20",0.0,5.0,81.7,1014.5,299.2,2.6,4.5,323.0,0.00,2.2,8.2,"20:19:12",1
"23/01/18","20:30",0.0,5.4,81.8,1014.7,324.0,4.0,5.7,331.1,0.00,2.6,8.1,"20:29:04",1
"23/01/18","20:40",0.0,5.4,81.5,1014.7,312.7,3.6,5.4,321.2,0.00,2.5,8.1,"20:33:46",1
"23/01/18","20:50",0.0,5.4,81.3,1014.9,303.2,3.7,5.5,313.2,0.00,2.5,8.1,"20:48:18",1
"23/01/18","21:00",0.0,5.3,81.5,1014.7,316.0,3.5,4.9,329.2,0.00,2.4,8.0,"20:59:12",1
"23/01/18","21:10",0.0,5.2,81.7,1014.7,308.9,3.4,4.7,330.0,0.00,2.4,8.2,"21:02:42",1
"23/01/18","21:20",0.0,5.3,81.9,1014.9,325.5,3.5,4.9,332.3,0.00,2.5,8.0,"21:12:26",1
"23/01/18","21:30",0.0,5.2,82.3,1014.7,319.9,3.9,5.0,327.3,0.00,2.5,8.1,"21:23:16",1
"23/01/18","21:40",0.0,5.3,82.5,1014.7,313.8,4.1,5.9,315.8,0.00,2.6,7.9,"21:37:06",1
"23/01/18","21:50",0.0,5.2,82.6,1015.2,313.7,3.7,4.7,311.4,0.00,2.5,7.8,"21:48:14",1
"23/01/18","22:00",0.0,5.2,82.7,1015.2,307.8,3.5,5.2,317.6,0.00,2.5,7.9,"21:52:30",1
"23/01/18","22:10",0.0,5.1,82.9,1015.4,311.0,3.1,4.8,320.6,0.00,2.5,8.0,"22:08:44",1
"23/01/18","22:20",0.0,5.0,83.0,1014.9,319.9,3.6,5.1,344.8,0.00,2.4,7.8,"22:10:50",1
"23/01/18","22:30",0.0,4.9,83.4,1014.9,316.2,3.6,4.9,316.1,0.00,2.4,7.9,"22:26:10",1
"23/01/18","22:40",0.0,4.8,83.6,1015.2,309.4,3.5,5.1,325.3,0.00,2.3,8.0,"22:32:50",1
"23/01/18","22:50",0.0,4.3,84.2,1015.2,313.2,3.1,4.4,318.0,0.00,1.9,7.8,"22:48:44",1
"23/01/18","23:00",0.0,4.0,84.9,1014.9,312.7,2.7,3.9,312.4,0.00,1.7,7.9,"22:58:36",1
"23/01/18","23:10",0.0,3.8,85.7,1014.7,293.1,2.3,3.1,304.4,0.00,1.7,7.8,"23:04:46",1
"23/01/18","23:20",0.0,3.8,86.3,1014.7,292.9,2.3,3.3,323.1,0.00,1.8,7.6,"23:18:24",1
"23/01/18","23:30",0.0,3.8,86.8,1014.9,308.7,2.6,3.9,304.5,0.00,1.8,7.7,"23:29:18",1
"23/01/18","23:40",0.0,3.8,86.9,1014.9,302.2,2.8,4.1,331.4,0.00,1.9,7.8,"23:33:18",1
"23/01/18","23:50",0.0,3.8,87.2,1014.9,316.0,3.0,4.2,338.9,0.00,1.9,7.7,"23:42:38",1
"23/01/18","24:00",0.0,3.9,87.3,1014.9,315.9,3.0,3.7,326.6,0.00,2.0,7.6,"23:55:12",1
